Home   Weather   Gitega   Past weeks
Flag for Burundi

Past Weather in Gitega, Burundi — Yesterday and Last 2 Weeks

Now
63 °F

Partly cloudy.


Feels Like: 63 °F
Forecast: 75 / 56 °F
Wind: 3 mph from Northwest

Location: Kigali Airport

Current Time: Jun 16, 2019 at 3:41:02 am

Latest Report: Jun 16, 2019 at 3:00 am


Visibility: N/A

Pressure: 30.15 "Hg (24.74 "Hg at 1679m altitude)

Humidity: 83%

Dew Point: 57 °F

Location of GitegaLocation

Past Weather in Gitega — Graph

°F

Gitega Temperature Yesterday

Maximum temperature yesterday: 79 °F (at 1:30 pm)
Minimum temperature yesterday: 64 °F (at 5:00 am)
Average temperature yesterday: 72 °F

High & Low Weather Summary for the Past Weeks

 TemperatureHumidityPressure
High84 °F (Jun 1, 3:00 pm)100% (Jun 4, 4:00 am)30.27 "Hg (Jun 4, 4:00 am)
Low57 °F (Jun 5, 6:00 am)40% (Jun 1, 3:00 pm)30.01 "Hg (Jun 1, 3:00 pm)
Average70 °F71%30.16 "Hg
* Reported Jun 1 2:00 am — Jun 16 2:00 am, Gitega. Weather by CustomWeather, © 2019

Note: Actual official high and low records may vary slightly from our data, if they occured in-between our weather recording intervals... More about our weather records

Advertising

Gitega Weather History for the Previous 24 Hours

Scroll right to see more
 ConditionsComfort  
Time TempWeatherWind HumidityBarometerVisibility
2:00 am
Sun, Jun 16
64 °FPartly cloudy.3 mph78%30.18 "HgN/A
1:00 am64 °FPassing clouds.5 mph78%30.18 "HgN/A
12:00 am66 °FPassing clouds.2 mph73%30.21 "HgN/A
11:00 pm
Sat, Jun 15
68 °FPassing clouds.3 mph64%30.21 "HgN/A
10:00 pm70 °FPassing clouds.3 mph60%30.21 "HgN/A
9:00 pm72 °FPassing clouds.2 mph57%30.21 "HgN/A
8:30 pm72 °FPassing clouds.2 mph53%30.18 "HgN/A
8:00 pm72 °FPassing clouds.3 mph57%30.18 "HgN/A
6:00 pm75 °FPassing clouds.8 mph47%30.12 "HgN/A
5:00 pm77 °FPassing clouds.9 mph47%30.12 "HgN/A
4:30 pm77 °FScattered clouds.7 mph47%30.12 "HgN/A
4:00 pm79 °FScattered clouds.7 mph45%30.12 "HgN/A
3:00 pm79 °FScattered clouds.9 mph45%30.12 "HgN/A
2:30 pm79 °FScattered clouds.5 mph45%30.12 "HgN/A
2:00 pm79 °FScattered clouds.8 mph45%30.15 "HgN/A
1:30 pm79 °FScattered clouds.8 mph42%30.15 "HgN/A
1:00 pm77 °FScattered clouds.9 mph47%30.15 "HgN/A
12:30 pm75 °FScattered clouds.7 mph47%30.18 "HgN/A
12:00 pm77 °FScattered clouds.7 mph47%30.21 "HgN/A
11:30 am75 °FScattered clouds.12 mph47%30.21 "HgN/A
11:00 am73 °FScattered clouds.13 mph50%30.24 "HgN/A
10:30 am73 °FScattered clouds.13 mph50%30.24 "HgN/A
10:00 am72 °FScattered clouds.8 mph69%30.24 "HgN/A
9:00 am70 °FScattered clouds.3 mph69%30.24 "HgN/A
8:30 am70 °FScattered clouds.2 mph69%30.24 "Hg6 mi
8:00 am66 °FBroken clouds.3 mph83%30.24 "Hg6 mi
7:30 am66 °FScattered clouds.2 mph78%30.21 "HgN/A
7:00 am64 °FScattered clouds.6 mph83%30.18 "Hg5 mi
6:00 am64 °FBroken clouds.6 mph83%30.18 "HgN/A
5:00 am64 °FPassing clouds.3 mph83%30.15 "HgN/A
3:30 am66 °FPassing clouds.6 mph73%30.15 "HgN/A
Weather by CustomWeather, © 2019

See weather overview